SXM-7

Last updated on Thu Nov 06 2025 00:02:50 GMT+0000 (Coordinated Universal Time)

1 47240U 20096A 25309.13625086 -.00000193 00000+0 00000+0 0 9996 2 47240 0.0348 116.1411 0004069 22.2246 230.1533 1.00270837 5196
UTC large
Height (km)
Speed (km/s)
/
Latitude / Longitude
Inclination (degrees)
Orbital Period (minutes)
Azimuth
Elevation
Range (km)
Doppler Factor

Next 0 passes for location: London (51.5072 / 0.1276)

Sorry there are no passes over London.